TimeEDT,TemperatureF,Dew PointF,Humidity,Sea Level PressureIn,VisibilityMPH,Wind Direction,Wind SpeedMPH,Gust SpeedMPH,PrecipitationIn,Events,Conditions,WindDirDegrees,DateUTC
12:51 AM,62.1,60.1,93,30.04,10.0,Calm,Calm,-,N/A,,Scattered Clouds,0,2013-08-07 04:51:00
1:51 AM,61.0,59.0,93,30.04,10.0,Calm,Calm,-,N/A,,Mostly Cloudy,0,2013-08-07 05:51:00
2:51 AM,62.1,60.1,93,30.04,10.0,Calm,Calm,-,N/A,,Mostly Cloudy,0,2013-08-07 06:51:00
3:51 AM,62.1,60.1,93,30.04,10.0,Calm,Calm,-,N/A,,Mostly Cloudy,0,2013-08-07 07:51:00
4:51 AM,63.0,61.0,93,30.04,10.0,Calm,Calm,-,N/A,,Overcast,0,2013-08-07 08:51:00
5:51 AM,63.0,61.0,93,30.04,10.0,Calm,Calm,-,N/A,,Mostly Cloudy,0,2013-08-07 09:51:00
6:51 AM,62.1,60.1,93,30.05,10.0,Calm,Calm,-,N/A,,Mostly Cloudy,0,2013-08-07 10:51:00
7:51 AM,64.0,61.0,90,30.06,10.0,Calm,Calm,-,N/A,,Overcast,0,2013-08-07 11:51:00
8:31 AM,64.4,62.6,94,30.08,10.0,Calm,Calm,-,N/A,,Overcast,0,2013-08-07 12:31:00
8:51 AM,66.9,63.0,87,30.07,10.0,Calm,Calm,-,N/A,,Mostly Cloudy,0,2013-08-07 12:51:00
9:00 AM,68.0,62.6,83,30.08,10.0,Calm,Calm,-,N/A,,Mostly Cloudy,0,2013-08-07 13:00:00
9:51 AM,73.0,64.9,76,30.05,10.0,Variable,3.5,-,N/A,,Clear,0,2013-08-07 13:51:00
10:51 AM,78.1,66.0,66,30.04,10.0,SSW,6.9,-,N/A,,Partly Cloudy,210,2013-08-07 14:51:00
11:51 AM,80.1,66.0,62,30.04,10.0,SW,8.1,-,N/A,,Mostly Cloudy,220,2013-08-07 15:51:00
12:51 PM,82.0,66.0,58,30.03,10.0,SW,6.9,-,N/A,,Partly Cloudy,220,2013-08-07 16:51:00
1:51 PM,82.0,66.0,58,30.02,10.0,NW,6.9,-,N/A,,Mostly Cloudy,310,2013-08-07 17:51:00
2:51 PM,81.0,66.0,60,30.01,10.0,South,8.1,-,N/A,,Mostly Cloudy,180,2013-08-07 18:51:00
3:51 PM,75.9,64.0,67,30.02,10.0,Calm,Calm,-,0.00,Rain,Light Rain,0,2013-08-07 19:51:00
4:51 PM,77.0,66.0,69,30.01,10.0,North,4.6,-,0.00,,Clear,350,2013-08-07 20:51:00
5:51 PM,75.0,69.1,82,30.01,10.0,NW,4.6,-,N/A,,Mostly Cloudy,320,2013-08-07 21:51:00
6:09 PM,71.6,69.8,94,30.05,2.5,SSW,5.8,-,0.17,Rain,Heavy Rain,210,2013-08-07 22:09:00
6:17 PM,73.4,68.0,83,30.04,7.0,South,6.9,-,0.21,Rain,Light Rain,170,2013-08-07 22:17:00
6:51 PM,71.1,68.0,90,30.04,10.0,Calm,Calm,-,0.23,Rain,Light Rain,0,2013-08-07 22:51:00
7:51 PM,71.1,68.0,90,30.04,10.0,Calm,Calm,-,0.01,Rain,Light Rain,0,2013-08-07 23:51:00
8:51 PM,70.0,68.0,93,30.04,10.0,Calm,Calm,-,0.01,,Mostly Cloudy,0,2013-08-08 00:51:00
9:26 PM,69.8,68.0,94,30.07,9.0,Calm,Calm,-,0.00,,Overcast,0,2013-08-08 01:26:00
9:51 PM,69.1,68.0,96,30.04,9.0,Calm,Calm,-,0.00,,Overcast,0,2013-08-08 01:51:00
10:15 PM,69.8,68.0,94,30.08,8.0,Calm,Calm,-,N/A,,Overcast,0,2013-08-08 02:15:00
10:51 PM,69.1,66.9,93,30.05,8.0,Calm,Calm,-,N/A,,Overcast,0,2013-08-08 02:51:00
11:08 PM,69.8,66.2,88,30.08,10.0,Calm,Calm,-,N/A,,Overcast,0,2013-08-08 03:08:00
11:51 PM,69.1,66.9,93,30.04,7.0,Calm,Calm,-,0.00,,Overcast,0,2013-08-08 03:51:00